Create Custom Reports and Graphics: Custom Report

Latest Observations

Map

15 Minute Data

South County Map

Map

15 Minute Data

Northern Sonoma County Latest

23 Stations

15 Minute Data | America/Los_Angeles
as of 7/14/24 1:39 AM PDT
Station Date Time Temp (°F) RH (%) Dew Pt (°F) Wind Spd (mph) Wind Dir (°) Wind Gust (mph) Latest Rain (In) Daily Rain (In) Daily Min Temp (°F) Daily Max Temp (°F)
Rockpile Lower (Cooley) 7/14/24 0115 60.6   16.8 69   34 50.5   3.1 2.6   1.0 NNW | 332 4.4   0.8 0.00 0.00 58.8   17.2 60.9   17.7
Rockpile Upper (Cooley) 7/14/24 0130 62.5   18.0 49   26 43.3   3.6 1.4   4.8 SE | 136 3.7   5.9 0.00 0.00 61.1   18.8 63.1   18.1
Cloverdale-East (Ranch 83) 7/14/24 0130 58.1   2.5 - - 0.7   0.2 ESE | 106 1.8   0.1 0.00 0.00 57.9   2.5 59.0   2.5
Cloverdale-SE (Ranch 38) 7/14/24 0130 59.6   5.3 77   10 52.3   1.2 2.6   0.1 N | 6 3.8   2.3 0.00 0.00 59.5   4.4 60.3   6.7
Geyserville-North (Hoffman) 7/14/24 0130 56.9   3.2 81   6 51.1   1.1 0.0   2.2 N | 0 0.0   3.6 0.00 0.00 56.3   3.2 57.6   3.5
Geyserville (Ranch 3) 7/14/24 0130 58.5   0.9 80   4 52.5   0.3 0.2   0.8 E | 86 1.3   1.6 0.00 0.00 57.6   1.5 59.0   1.3
Geyserville-East (Ranch 40) 7/14/24 0130 56.5   3.1 86   9 52.4   0.0 0.3   2.2 WNW | 287 2.0   2.6 0.00 0.00 56.2   2.8 57.1   5.7
Geyserville-South (Nervo Station) 7/14/24 0130 56.8   1.6 - - 0.0   0.0 N | 0 0.0   0.0 0.00 0.00 56.1   1.9 57.2   2.1
Whitton Ranch (201e) 7/14/24 0130 52.0   5.0 90   8 49.1   2.4 0.8   0.4 NE | 39 1.8   0.6 0.00 0.00 51.8   4.6 52.9   5.1
Lytton East (Shop Hill Bottom) 7/14/24 0130 54.1   2.1 87   4 50.4   0.9 0.3   1.4 SSE | 164 1.3   2.1 0.00 0.00 53.5   2.6 55.0   2.1
Lytton East (Hill 5) 7/14/24 0130 55.8   0.4 88   4 52.3   1.0 1.6   1.6 SW | 228 2.8   2.1 0.00 0.00 55.4   0.5 56.0   0.8
Lytton West Lower (Lew 6) 7/14/24 0130 54.2   1.9 89   6 51.0   0.1 0.5   0.1 E | 100 2.1   0.1 0.00 0.00 53.9   1.9 54.4   2.5
Lytton West Hill (23PS) 7/14/24 0130 55.6   1.3 87   6 51.9   0.5 1.2   1.0 ESE | 116 2.1   2.3 0.00 0.00 54.9   1.8 56.5   0.6
Lytton (River Oaks) 7/14/24 0130 55.1   1.6 87   6 51.4   0.6 0.6   1.3 E | 84 2.8   0.1 0.00 0.00 55.0   1.3 55.3   2.7
Lytton (River Oaks Remote) 7/14/24 0130 53.5   2.0 91   4 50.8   0.8 - - - - - 53.4   1.6 54.6   1.3
Jimtown-North (Piccolo Ranch 15) 7/14/24 0130 56.6   2.4 78   4 49.8   0.7 1.2   0.4 NE | 40 2.6   0.7 0.00 0.00 56.1   2.4 57.5   2.1
Jimtown-NE (Red Fan) 7/14/24 0130 56.4   1.9 86   6 52.2   0.2 1.6   1.2 NNE | 28 2.5   0.6 0.00 0.00 56.1   1.9 57.4   1.3
HWY 128/Chalk Hill Rd (Landslide) 7/14/24 0100 55.3   1.8 90   8 52.4   0.6 0.5   0.1 SSW | 213 1.4   0.0 0.00 0.00 52.7   1.9 84.1   17.3
N Chalk Hill Rd (Ranch 63) 7/14/24 0130 54.6   2.4 87   7 50.8   0.0 0.7   0.7 SE | 134 2.0   1.1 0.00 0.00 54.5   2.0 55.1   2.9
Knights Valley (Bavarian Lion) 7/14/24 0130 54.5   1.8 86   7 50.5   0.4 0.6   1.3 WNW | 286 1.8   1.0 0.00 0.00 54.0   1.9 55.2   1.4
Bavarian Lion EFW 7/14/24 0130 55.9   2.6 - - - - - 0.00 0.00 55.5   2.6 56.4   2.2
Upper Dry Creek Valley 7/14/24 0130 56.2   2.6 87   9 52.4   0.4 0.7   0.8 N | 9 1.8   1.8 0.00 0.00 56.1   2.5 56.6   2.9
Lower Dry Creek Valley 7/14/24 0130 54.4   2.2 89   6 51.3   0.3 0.8   1.8 SSE | 157 2.3   2.1 0.00 0.00 54.2   2.1 55.0   2.5
Max     62.5 91 52.5 2.6 - 4.4 0.00 0.00 61.1 84.1
Avg     56.2 83 50.9 0.9 - 2.1 0.00 - - -
Min     52.0 49 43.3 0.0 - 0.0 0.00 0.00 51.8 52.9

Central Sonoma County Latest

32 Stations

15 Minute Data | America/Los_Angeles
as of 7/14/24 1:39 AM PDT
Station Date Time Temp (°F) RH (%) Dew Pt (°F) Wind Spd (mph) Wind Dir (°) Wind Gust (mph) Latest Rain (In) Daily Rain (In) Daily Min Temp (°F) Daily Max Temp (°F)
Healdsburg-South (Sodini) 7/14/24 0130 54.0   0.9 91   5 51.3   0.6 0.0   0.0 N | 0 0.0   0.0 0.00 0.00 53.4   1.1 54.1   0.9
Windsor-East (Ranch 16) 7/14/24 0130 52.9   0.1 93   2 50.9   0.8 0.5   0.1 ESE | 112 1.5   0.0 0.00 0.00 52.4   0.0 53.3   0.1
Windsor-NW (Ranch 8) 7/14/24 0130 55.2   0.4 83   0 50.2   0.5 0.0   0.0 N | 0 0.0   0.0 0.00 0.00 55.1   0.4 55.6   0.3
Mark West-North (Ranch 14) 7/14/24 0130 54.5   0.6 91   6 52.0   1.3 0.7   0.6 SW | 228 2.2   1.0 0.00 0.00 54.4   0.6 55.2   0.4
Windsor-SE (Silk Rd) 7/14/24 0115 53.2   1.1 91   3 50.8   0.2 0.0   0.0 NNW | 330 0.4   0.4 0.00 0.00 53.0   1.2 53.5   0.9
Fulton-NW (Ranch 5) 7/14/24 0130 53.7   0.2 93   5 51.9   1.2 0.7   0.2 ENE | 77 2.4   0.5 0.00 0.00 53.6   0.2 54.3   0.0
Windsor-South (Laughlin Rd) 7/14/24 0130 53.7   0.0 - - - - - 0.00 0.00 53.1   0.2 54.9   0.6
Fulton-SE (Barnes Rd) 7/14/24 0130 56.0   0.6 87   6 52.3   1.5 1.6   0.2 ESE | 114 4.0   0.1 0.00 0.00 55.6   0.8 56.6   0.1
Fulton-SW (Ranch 21) 7/14/24 0130 53.8   0.5 - - 2.1   0.1 ESE | 120 3.0   0.2 0.00 0.00 53.6   0.6 54.3   0.7
Santa Rosa-NW (Goldfields) 7/14/24 0130 54.1   0.6 94   2 52.3   1.2 2.1   0.1 SE | 125 3.0   1.0 0.00 0.00 53.7   0.2 54.5   0.7
Goldfields Remote 5/8/24 1630 84.1   13.4 - - - - - - - 68.0   2.4 84.5   12.8
NW Santa Rosa (Piner Road) 7/14/24 0130 53.0   0.0 96   1 51.8   0.4 1.5   1.0 ESE | 115 2.5   0.7 0.00 0.00 52.8   0.2 53.5   0.3
River Rd South (Denner Ranch) 7/14/24 0130 52.4   0.2 94   2 50.7   0.4 2.8   0.2 E | 95 3.9   0.2 - - 51.8   0.4 52.8   0.0
West Santa Rosa (LOV Vineyard) 7/14/24 0130 53.4   0.5 95   2 51.9   1.0 0.8   0.1 ESE | 114 1.4   0.7 0.00 0.00 53.1   0.2 53.6   0.5
Guerneville Rd (Prokopakis) 7/14/24 0130 53.6   0.1 94   3 52.0   0.7 - - - 0.00 0.00 53.5   0.2 54.0   0.3
Guerneville Rd West (Balletto) 7/14/24 0130 52.9   0.1 92   1 50.8   0.2 1.3   0.3 SE | 141 2.1   0.1 0.00 0.00 52.7   0.2 53.8   0.2
Guerneville Rd East (Rich Ranch) 7/14/24 0130 52.9   0.1 91   0 50.3   0.0 - - - - - 52.9   0.0 53.4   0.3
Sanchietti Ranch 7/14/24 0130 56.0   2.9 96   1 54.9   2.7 3.4   1.5 SSW | 213 7.8   4.4 0.00 0.00 55.1   2.2 56.0   2.6
Occidental Rd (Sebastopol) 7/14/24 0130 54.9   3.0 100   0 55.0   3.1 2.5   1.9 S | 190 7.9   6.6 0.00 0.00 54.8   3.2 55.3   2.8
Lower Westside Rd (Ranch 12) 7/14/24 0130 54.7   0.6 90   2 52.0   1.0 0.4   0.4 ENE | 70 2.0   2.0 0.00 0.00 53.7   0.2 55.0   0.2
Guerneville (Laughlin Rd) 7/14/24 0130 52.7   1.9 90   1 49.8   1.4 0.2   0.6 NE | 43 1.0   1.4 0.00 0.00 52.7   1.9 53.2   1.8
Korbel (Winery) 7/14/24 0130 55.2   2.1 90   5 52.4   0.5 1.4   1.1 NW | 312 3.4   2.3 0.00 0.00 55.1   2.1 55.3   2.2
Forestville (Shone Farms) 7/14/24 0130 54.0   0.2 91   2 51.5   0.6 0.9   0.5 ENE | 68 2.4   0.5 0.00 0.00 52.0   0.0 55.5   0.4
Forestville-NE (Ranch 30) 7/14/24 0130 53.3   0.4 92   2 51.2   0.2 1.4   1.3 ESE | 109 3.8   0.7 0.00 0.00 52.8   0.5 53.8   0.0
Green Valley Vineyard 7/14/24 0130 52.2   0.3 93   1 50.3   0.1 0.6   0.1 NNW | 345 1.8   0.2 0.00 0.00 51.5   0.7 52.5   0.4
Green Valley (Sanchietti) 7/14/24 0130 53.6   0.4 - - - - - - - 53.0   0.1 55.6   0.8
Graton-West (Dutton Ranch) 7/14/24 0130 53.0   0.5 100   0 53.0   0.4 0.3   0.6 NNW | 342 1.3   1.4 0.00 0.00 52.6   0.5 54.4   0.2
Graton-South (Mill Station Rd) 7/14/24 0130 55.4   2.8 93   3 53.4   1.9 1.3   0.7 S | 171 4.2   0.1 0.00 0.00 55.0   2.7 56.2   3.3
Occidental (Horseshoe Bend) 7/14/24 0130 51.7   1.2 96   1 50.7   1.0 - - - 0.00 0.00 51.6   1.2 52.4   1.5
Sexton Valley (Jacqueline's Blk) 7/14/24 0130 55.7   3.0 94   2 53.9   2.4 1.5   0.0 SW | 229 8.5   2.6 0.00 0.00 55.6   3.1 55.8   2.8
Sebastopol Hills (Burnside Rd) 7/14/24 0130 54.1   2.8 99   1 53.8   2.6 4.1   0.2 SW | 223 7.5   1.0 0.00 0.00 54.1   2.8 54.3   2.6
Seaview/Fort Ross (Hirsch) 7/14/24 0130 57.0   22.6 68   34 46.5   2.6 2.1   0.8 ESE | 103 3.2   0.0 0.00 0.00 57.0   22.1 60.3   20.7
Max     57.0 100 55.0 4.1 - 8.5 0.00 0.00 57.0 60.3
Avg     54.0 92 51.7 1.3 - 3.1 0.00 - - -
Min     51.7 68 46.5 0.0 - 0.0 0.00 0.00 51.5 52.4

Southern Sonoma County Latest

20 Stations

15 Minute Data | America/Los_Angeles
as of 7/14/24 1:39 AM PDT
Station Date Time Temp (°F) RH (%) Dew Pt (°F) Wind Spd (mph) Wind Dir (°) Wind Gust (mph) Latest Rain (In) Daily Rain (In) Daily Min Temp (°F) Daily Max Temp (°F)
Upper Rincon Valley 7/14/24 0130 56.2   7.1 76   18 48.6   0.4 1.0   0.2 WNW | 289 3.0   1.1 0.00 0.00 54.3   8.7 56.4   7.6
Lower Bennett Valley 7/14/24 0130 54.1   2.0 94   5 52.4   3.5 2.9   1.6 WNW | 291 5.4   3.2 0.00 0.00 54.0   2.2 54.5   1.3
Kenwood (Wildwood) 7/14/24 0130 56.7   1.0 86   9 52.6   1.9 5.4   3.1 NNE | 17 8.5   4.2 0.00 0.00 56.5   1.0 57.1   1.2
Sonoma Valley (Bedrock) 7/14/24 0130 56.9   0.4 - 51.3   1.0 3.2   3.2 NNW | 342 8.8   8.8 0.00 0.00 56.8   0.1 57.4   0.6
Sonoma-West (Arnold) 6/11/24 1500 98.1   10.6 26   7 57.4   2.1 6.8   1.3 SW | 217 11.5   4.1 0.00 0.00 47.9   6.5 98.1   9.7
Sonoma Valley HS 4/23/24 0915 56.0   7.1 77   2 48.9   7.4 2.2   1.4 WSW | 241 5.5   2.9 0.00 0.00 49.3   0.2 56.4   7.8
Sonoma East (Bundschu01) 7/14/24 0130 56.5   1.9 84   2 51.7   1.1 2.4   2.0 ESE | 103 3.9   2.0 0.00 0.00 56.0   1.6 56.8   1.7
Schellville (Sasaki) 7/14/24 0130 56.6   0.5 88   4 53.0   1.7 8.9   5.1 S | 180 14.5   7.0 0.00 0.00 56.5   0.5 57.2   1.0
Sonoma-SE (Napoli) 7/14/24 0130 56.5   2.6 85   2 52.1   1.8 0.0   0.0 N | 0 0.0   0.0 0.00 0.00 56.0   2.5 56.6   1.4
Ricci Vineyards (Carneros) 7/14/24 0130 56.8   0.2 86   2 52.6   0.9 7.2   6.2 WNW | 293 11.4   8.7 0.00 0.00 56.6   0.2 57.5   0.7
Carneros (Ranch 71) 7/14/24 0130 56.2   1.2 86   5 52.1   0.5 5.6   4.2 WNW | 283 9.2   5.3 0.00 0.00 55.9   1.0 56.2   1.4
Carneros Upper (Ranch 81) 7/14/24 0130 56.5   2.0 84   7 51.8   0.4 9.7   8.7 W | 262 12.8   10.1 - - 56.2   1.9 56.7   2.1
Carneros Lower (Ranch 81) 7/14/24 0130 56.6   0.1 86   1 52.6   0.4 0.2   0.2 SSW | 203 2.1   1.5 0.00 0.00 56.5   0.1 57.0   0.1
Rohnert Park-West (Stony Point) 7/14/24 0130 55.6   2.2 96   0 54.4   2.1 2.3   1.0 WSW | 255 5.8   2.6 0.00 0.00 55.0   2.1 55.6   2.2
Cartograph Wines Base 7/14/24 0130 55.0   3.0 98   2 54.4   2.6 2.5   0.4 WSW | 250 5.4   0.6 0.00 0.00 54.9   2.9 55.1   2.8
Cartograph Wines Remote 7/14/24 0130 57.1   4.4 - - - - - - - 57.0   4.4 57.6   4.4
Rice-Spivak Vineyard 7/14/24 0130 55.8   4.5 - - - - - - - 55.6   4.8 55.9   3.2
Penngrove (Asellus) 7/14/24 0130 55.0   3.1 93   0 53.0   3.0 4.4   4.4 NNW | 327 6.7   6.7 0.00 0.00 54.4   2.7 55.2   2.5
Roger's Creek (Ranch 50) 7/14/24 0130 52.9   0.7 100   10 52.9   3.5 5.6   4.8 WSW | 247 10.8   7.5 0.00 0.00 52.6   0.7 53.0   0.6
Petaluma (Ranch 10) 7/14/24 0130 55.6   2.1 90   4 52.7   0.9 2.8   1.2 WNW | 296 7.1   3.1 0.00 0.00 55.5   2.1 56.0   2.3
Max     57.1 100 54.4 9.7 - 14.5 0.00 0.00 57.0 57.6
Avg     55.9 89 52.4 4.0 - 7.2 0.00 - - -
Min     52.9 76 48.6 0.0 - 0.0 0.00 0.00 52.6 53.0

Latest Observations

Map

Hourly Data